Flag for U.S.A. Weather past 2 weeks in Fayetteville, North Carolina, U.S.A.

Now
85 °F

Clear.


Feels Like: 91 °F
Forecast: 75 / 93 °F
Wind: 14 mph from West

Location: Fayetteville Regional Airport

Current Time: Jul 28, 2014 at 3:37:43 AM

Latest Report: Jul 28, 2014 at 2:53 AM


Visibility: 10 mi

Pressure: 29.75 "Hg

Humidity: 65%

Dew point: 72 °F

Location of FayettevilleLocation

Historic Weather in Fayetteville — Graph

°F

Fayetteville temperature yesterday

Maximum temperature yesterday: 93 °F (at 3:53 PM)
Minimum temperature yesterday: 76 °F (at 3:53 AM)
Average temperature yesterday: 83 °F

Past Weeks' High & Low Weather Summary

 TemperatureHumidityPressure
High95 °F (Jul 14, 3:53 PM)97% (Jul 21, 2:53 AM)30.16 "Hg (Jul 21, 2:53 AM)
Low65 °F (Jul 17, 5:53 AM)35% (Jul 18, 2:53 PM)29.73 "Hg (Jul 28, 1:53 AM)
Average79 °F74%29.98 "Hg
* Reported Jul 13 1:53 AM — Jul 28 1:53 AM, Fayetteville, Weather by CustomWeather, © 2014

Note: Actual official high and low records may vary slightly from our data, if they occured in-between our weather recording intervals... More about our weather records

Advertising

Fayetteville weather history for previous 24 hours

 ConditionsComfort  
Time TempWeatherWind HumidityBarometerVisibility
1:53 AM
Jul 28
85 °FPassing clouds.18 mph65%29.73 "Hg10 mi
12:53 AM86 °FClear.15 mph63%29.76 "Hg10 mi
11:53 PM
Jul 27
86 °FClear.20 mph65%29.76 "Hg10 mi
10:53 PM85 °FClear.16 mph68%29.77 "Hg10 mi
9:53 PM85 °FClear.12 mph65%29.81 "Hg10 mi
8:53 PM86 °FSunny.10 mph63%29.80 "Hg10 mi
7:53 PM88 °FSunny.9 mph59%29.80 "Hg10 mi
6:53 PM90 °FSunny.14 mph54%29.81 "Hg10 mi
5:53 PM92 °FSunny.15 mph47%29.83 "Hg10 mi
4:53 PM92 °FSunny.14 mph51%29.85 "Hg10 mi
3:53 PM93 °FPassing clouds.10 mph47%29.86 "Hg10 mi
2:53 PM90 °FSunny.6 mph54%29.90 "Hg10 mi
1:53 PM87 °FPassing clouds.5 mph61%29.91 "Hg10 mi
12:53 PM79 °FMostly cloudy.No wind72%29.93 "Hg10 mi
11:53 AM79 °FScattered clouds.5 mph74%29.93 "Hg10 mi
11:00 AM81 °FOvercast.10 mph65%29.95 "Hg10 mi
9:53 AM85 °FSunny.13 mph68%29.93 "Hg10 mi
8:53 AM81 °FSunny.5 mph79%29.91 "Hg8 mi
7:53 AM78 °FFog.8 mph90%29.92 "Hg4 mi
6:53 AM76 °FFog.5 mph94%29.90 "Hg2 mi
5:53 AM76 °FFog.7 mph97%29.90 "Hg4 mi
4:53 AM76 °FFog.6 mph97%29.90 "Hg5 mi
3:53 AM76 °FFog.7 mph97%29.89 "Hg6 mi
Weather by CustomWeather, © 2014

See weather overviewHow to use our weather pages